Cook, MN

11:11 AM CDT on September 19, 2017 (GMT -0500)
Cook Municipal

Weather History for KCQM - July, 2013

Change the Weather History Date:

Thursday, July 4, 2013

  Actual Average Record
Temperature  
Mean Temperature 72 °F -  
Max Temperature 84 °F 73 °F 86 °F (2011)
Min Temperature 60 °F 50 °F 42 °F (2008)
Cooling Degree Days 7    
Growing Degree Days 22 (Base 50)    
Moisture  
Dew Point 54 °F    
Average Humidity 52    
Maximum Humidity 72    
Minimum Humidity 35    
Precipitation  
Precipitation 0.00 in - - ()
Sea Level Pressure  
Sea Level Pressure 29.89 in    
Wind  
Wind Speed 5 mph (South)    
Max Wind Speed 15 mph    
Max Gust Speed 21 mph    
Visibility 10 miles    
Events      
Averages and records for this station are not official NWS values.
T = Trace of Precipitation, MM = Missing Value Source: NWS Daily Summary

Daily Weather History Graph

Daily Weather History Graph

Search for Another Location

Airport or City:

Trip Planner

Search our weather history database for the weather conditions in past years. The results will help you decide how hot, cold, wet, or windy it might be!

Date:

Astronomy

Jul. 04, 2013 Rise Set
Actual Time 5:18 AM CDT 9:11 PM CDT
Civil Twilight 4:37 AM CDT 9:52 PM CDT
Nautical Twilight 3:42 AM CDT 10:47 PM CDT
Astronomical Twilight 2:16 AM CDT 12:12 AM CDT
Moon 2:42 AM CDT (7/4) 6:11 PM CDT (7/4)
Length of Visible Light 17h 14m
Length of Day
15h 53m
Waning Crescent, 11% of the Moon is Illuminated
Jul 4
Waning Crescent
Jul 8
New
Jul 15
First Quarter
Jul 22
Full
Jul 29
Last Quarter

Hourly Weather History & Observations

Time (CDT) Temp. Heat Index Dew Point Humidity Pressure Visibility Wind Dir Wind Speed Gust Speed Precip Events Conditions
12:17 AM 66.2 °F - 50.0 °F 56% 29.95 in 10.0 mi South 3.5 mph - N/A   Clear
12:36 AM 66.2 °F - 51.8 °F 60% 29.95 in 10.0 mi South 3.5 mph - N/A   Clear
12:56 AM 64.4 °F - 51.8 °F 64% 29.95 in 10.0 mi South 3.5 mph - N/A   Clear
1:17 AM 64.4 °F - 51.8 °F 64% 29.95 in 10.0 mi South 3.5 mph - N/A   Clear
1:36 AM 64.4 °F - 51.8 °F 64% 29.94 in 10.0 mi Calm Calm - N/A   Clear
1:56 AM 64.4 °F - 51.8 °F 64% 29.94 in 10.0 mi South 3.5 mph - N/A   Clear
2:17 AM 62.6 °F - 51.8 °F 68% 29.94 in 10.0 mi Calm Calm - N/A   Clear
2:36 AM 62.6 °F - 51.8 °F 68% 29.94 in 10.0 mi Calm Calm - N/A   Clear
2:56 AM 62.6 °F - 51.8 °F 68% 29.94 in 10.0 mi SSE 3.5 mph - N/A   Clear
3:17 AM 62.6 °F - 51.8 °F 68% 29.94 in 10.0 mi South 3.5 mph - N/A   Clear
3:36 AM 60.8 °F - 51.8 °F 72% 29.94 in 10.0 mi SSE 3.5 mph - N/A   Clear
3:56 AM 60.8 °F - 51.8 °F 72% 29.94 in 10.0 mi Calm Calm - N/A   Clear
4:17 AM 60.8 °F - 51.8 °F 72% 29.94 in 10.0 mi South 3.5 mph - N/A   Clear
4:36 AM 60.8 °F - 51.8 °F 72% 29.94 in 10.0 mi South 3.5 mph - N/A   Clear
4:56 AM 62.6 °F - 51.8 °F 68% 29.94 in 10.0 mi Calm Calm - N/A   Clear
5:17 AM 60.8 °F - 51.8 °F 72% 29.94 in 10.0 mi Calm Calm - N/A   Clear
5:36 AM 60.8 °F - 51.8 °F 72% 29.94 in 10.0 mi Calm Calm - N/A   Clear
5:56 AM 60.8 °F - 51.8 °F 72% 29.94 in 10.0 mi South 3.5 mph - N/A   Clear
6:17 AM 62.6 °F - 51.8 °F 68% 29.94 in 10.0 mi SSW 3.5 mph - N/A   Clear
6:36 AM 64.4 °F - 51.8 °F 64% 29.94 in 10.0 mi SSW 5.8 mph - N/A   Clear
6:57 AM 64.4 °F - 51.8 °F 64% 29.94 in 10.0 mi South 4.6 mph - N/A   Clear
7:17 AM 66.2 °F - 51.8 °F 60% 29.94 in 10.0 mi South 5.8 mph - N/A   Clear
7:36 AM 66.2 °F - 53.6 °F 64% 29.93 in 10.0 mi South 4.6 mph - N/A   Clear
7:57 AM 69.8 °F - 53.6 °F 56% 29.93 in 10.0 mi SSW 5.8 mph - N/A   Clear
8:17 AM 69.8 °F - 53.6 °F 56% 29.93 in 10.0 mi SSW 4.6 mph - N/A   Clear
8:36 AM 71.6 °F - 53.6 °F 53% 29.93 in 10.0 mi SSW 5.8 mph - N/A   Clear
8:57 AM 71.6 °F - 53.6 °F 53% 29.93 in 10.0 mi SSW 5.8 mph - N/A   Clear
9:17 AM 71.6 °F - 53.6 °F 53% 29.93 in 10.0 mi SW 9.2 mph - N/A   Clear
9:36 AM 73.4 °F - 53.6 °F 50% 29.93 in 10.0 mi South 8.1 mph - N/A   Clear
9:57 AM 75.2 °F - 53.6 °F 47% 29.92 in 10.0 mi SSW 6.9 mph - N/A   Clear
10:17 AM 75.2 °F - 53.6 °F 47% 29.91 in 10.0 mi SSW 8.1 mph - N/A   Clear
10:36 AM 77.0 °F - 55.4 °F 47% 29.91 in 10.0 mi SSE 8.1 mph - N/A   Clear
10:57 AM 77.0 °F - 51.8 °F 41% 29.91 in 10.0 mi SSW 6.9 mph - N/A   Clear
11:16 AM 78.8 °F - 51.8 °F 39% 29.90 in 10.0 mi South 6.9 mph - N/A   Clear
11:36 AM 78.8 °F - 51.8 °F 39% 29.90 in 10.0 mi South 6.9 mph 17.3 mph N/A   Clear
11:57 AM 78.8 °F - 50.0 °F 36% 29.89 in 10.0 mi South 8.1 mph - N/A   Clear
12:16 PM 78.8 °F - 51.8 °F 39% 29.89 in 10.0 mi SSE 10.4 mph 17.3 mph N/A   Clear
12:36 PM 78.8 °F - 51.8 °F 39% 29.89 in 10.0 mi South 12.7 mph 18.4 mph N/A   Clear
12:57 PM 80.6 °F 80.3 °F 53.6 °F 39% 29.88 in 10.0 mi South 8.1 mph - N/A   Clear
1:16 PM 80.6 °F 80.3 °F 53.6 °F 39% 29.88 in 10.0 mi South 8.1 mph 16.1 mph N/A   Clear
1:37 PM 80.6 °F 80.3 °F 53.6 °F 39% 29.87 in 10.0 mi SSE 11.5 mph 18.4 mph N/A   Clear
1:57 PM 82.4 °F 81.4 °F 53.6 °F 37% 29.87 in 10.0 mi South 8.1 mph 16.1 mph N/A   Scattered Clouds
2:16 PM 80.6 °F 80.5 °F 55.4 °F 42% 29.86 in 10.0 mi South 6.9 mph - N/A   Scattered Clouds
2:37 PM 82.4 °F 81.7 °F 55.4 °F 39% 29.86 in 10.0 mi SSE 8.1 mph - N/A   Scattered Clouds
2:57 PM 82.4 °F 81.7 °F 55.4 °F 39% 29.85 in 10.0 mi SSE 11.5 mph - N/A   Scattered Clouds
3:16 PM 82.4 °F 81.4 °F 53.6 °F 37% 29.85 in 10.0 mi SSW 11.5 mph 19.6 mph N/A   Scattered Clouds
3:37 PM 82.4 °F 81.7 °F 55.4 °F 39% 29.85 in 10.0 mi SW 6.9 mph 16.1 mph N/A   Scattered Clouds
3:56 PM 84.2 °F 82.8 °F 53.6 °F 35% 29.85 in 10.0 mi SSW 13.8 mph 20.7 mph N/A   Scattered Clouds
4:17 PM 84.2 °F 83.0 °F 55.4 °F 37% 29.85 in 10.0 mi SSW 13.8 mph 18.4 mph N/A   Clear
4:36 PM 82.4 °F 81.7 °F 55.4 °F 39% 29.85 in 10.0 mi SSW 10.4 mph 18.4 mph N/A   Clear
4:56 PM 84.2 °F 83.0 °F 55.4 °F 37% 29.85 in 10.0 mi SSW 11.5 mph 19.6 mph N/A   Clear
5:17 PM 82.4 °F 81.7 °F 55.4 °F 39% 29.84 in 10.0 mi SSW 10.4 mph 19.6 mph N/A   Scattered Clouds
5:36 PM 82.4 °F 81.7 °F 55.4 °F 39% 29.84 in 10.0 mi SSW 11.5 mph 18.4 mph N/A   Clear
5:57 PM 82.4 °F 81.7 °F 55.4 °F 39% 29.85 in 10.0 mi SSW 10.4 mph 16.1 mph N/A   Clear
6:16 PM 82.4 °F 81.7 °F 55.4 °F 39% 29.84 in 10.0 mi SW 11.5 mph 19.6 mph N/A   Clear
6:37 PM 82.4 °F 81.7 °F 55.4 °F 39% 29.84 in 10.0 mi South 9.2 mph 17.3 mph N/A   Clear
6:56 PM 82.4 °F 82.0 °F 57.2 °F 42% 29.84 in 10.0 mi SW 12.7 mph 20.7 mph N/A   Clear
7:17 PM 80.6 °F 80.8 °F 57.2 °F 45% 29.84 in 10.0 mi SSW 15.0 mph - N/A   Clear
7:36 PM 80.6 °F 80.8 °F 57.2 °F 45% 29.84 in 10.0 mi SSW 9.2 mph - N/A   Clear
7:56 PM 80.6 °F 80.8 °F 57.2 °F 45% 29.84 in 10.0 mi South 5.8 mph - N/A   Clear
8:17 PM 78.8 °F - 57.2 °F 47% 29.84 in 10.0 mi South 6.9 mph - N/A   Clear
8:36 PM 77.0 °F - 57.2 °F 50% 29.84 in 10.0 mi South 4.6 mph - N/A   Clear
8:56 PM 75.2 °F - 57.2 °F 53% 29.84 in 10.0 mi South 4.6 mph - N/A   Scattered Clouds
9:17 PM 75.2 °F - 57.2 °F 53% 29.84 in 10.0 mi SSE 3.5 mph - N/A   Scattered Clouds
9:36 PM 73.4 °F - 57.2 °F 57% 29.84 in 10.0 mi SSE 4.6 mph - N/A   Clear
9:56 PM 73.4 °F - 57.2 °F 57% 29.85 in 10.0 mi SSE 3.5 mph - N/A   Clear
10:17 PM 71.6 °F - 57.2 °F 60% 29.84 in 10.0 mi SSE 4.6 mph - N/A   Clear
10:36 PM 73.4 °F - 57.2 °F 57% 29.85 in 10.0 mi SSE 5.8 mph - N/A   Clear
10:56 PM 73.4 °F - 57.2 °F 57% 29.85 in 10.0 mi SSE 5.8 mph - N/A   Clear
11:16 PM 73.4 °F - 57.2 °F 57% 29.84 in 10.0 mi SSE 5.8 mph - N/A   Scattered Clouds
11:36 PM 71.6 °F - 57.2 °F 60% 29.84 in 10.0 mi SSE 5.8 mph - N/A   Clear
11:57 PM 73.4 °F - 57.2 °F 57% 29.84 in 10.0 mi South 8.1 mph - N/A   Clear